Regional Weather Roundup
Issued by NWS

Home | Current Version | Previous Version | Graphics & Text | Print | Product List | Glossary On
Versions: 1 2 3 4 5 6 7 8 9 10 11 12 13 14 15 16 17 18 19 20 21 22 23 24 25 26 27 28 29 30 31 32 33 34 35 36 37 38 39 40 41 42 43 44 45 46 47 48 49 50
000
ASUS43 KMPX 161401
RWRMN
WEATHER ROUNDUP FOR MINNESOTA
NATIONAL WEATHER SERVICE TWIN CITIES/CHANHASSEN MN
800 AM CST TUE JAN 16 2018


NOTE: "FAIR" INDICATES FEW OR NO CLOUDS BELOW 12,000 FEET WITH NO
SIGNIFICANT WEATHER AND/OR OBSTRUCTIONS TO VISIBILITY. N/A MEANS
CURRENT SKY AND/OR WEATHER CONDITIONS ARE NOT AVAILABLE.

MNZ060>063-068>070-161500-
   Twin Cities Metro

CITY           SKY/WX    TMP DP  RH WIND       PRES   REMARKS
TWIN CITIES    FLURRIES   0  -3  87 NW12      30.68S WCI -17
ST PAUL        CLOUDY     2  -2  83 NW14      30.69S WCI -16
CRYSTAL        CLOUDY    -1  -8  72 NW10      30.68R WCI -17
BLAINE         MOCLDY     0  -6  78 NW7       30.66S WCI -13
LAKEVILLE      CLOUDY     0  -2  92 NW8       30.66S FOG     WCI -15
EDEN PRAIRIE   CLOUDY     0  -5  79 NW7       30.67S WCI -13
SOUTH ST PAUL  CLOUDY     3  -1  82 NW9       30.67S WCI -12
LAKE ELMO      CLOUDY     3   0  85 NW9       30.66R WCI -11
$$
MNZ001>005-007-008-013>017-022>024-027-028-161500-
   Northwest Minnesota

CITY           SKY/WX    TMP DP  RH WIND       PRES   REMARKS
BEMIDJI        FAIR     -16 -21  78 W3        30.65S
HALLOCK        FAIR     -15 -20  76 S8        30.70F WCI -32
ROSEAU         FAIR     -17 -24  70 S7        30.66F WCI -33
WARROAD        FAIR     -18 -24  76 S5        30.65F WCI -31
CROOKSTON      FAIR     -17 -24  70 S3        30.74F
FOSSTON        FAIR     -20 -26  76 CALM      30.69S
DETROIT LAKES  MOCLDY   -13 -18  77 CALM      30.68F
MOORHEAD       FAIR     -15 -20  76 CALM      30.77S
PARK RAPIDS    FAIR     -18 -24  74 W6        30.64F WCI -33
MAHNOMEN       CLOUDY   -17 -22  78 W3        30.69F
$$
MNZ006-009>011-018-025>026-161500-
   North Central Minnesota

CITY           SKY/WX    TMP DP  RH WIND       PRES   REMARKS
BAUDETTE       FAIR     -19 -23  81 SW3       30.64F
FLAG ISLAND    FAIR     -15 -20  76 S3        30.63F
INTL FALLS     MOCLDY   -10 -15  78 W5        30.64F WCI -22
WASKISH        FAIR     -17 -20  83 W6        30.66F WCI -31
BIG FORK       CLOUDY    -6 -11  77 CALM      30.63S
LONGVILLE      FAIR     -11 -15  84 NW3       30.64F
GRAND RAPIDS   FLURRIES  -6  -9  86 NW12      30.64F WCI -25
CRANE LAKE     CLOUDY    -4  -6  92 NW3       30.65S
ORR            CLOUDY    -4  -9  77 NW7       30.58F WCI -18
COOK           CLOUDY    -4  -8  84 W6        30.61S WCI -16
WALKER         FAIR     -14 -18  81 W3        30.65F
$$
MNZ012-019>021-037-161500-
   Northeast Minnesota

CITY           SKY/WX    TMP DP  RH WIND       PRES   REMARKS
DULUTH         FAIR      -5  -8  87 N14       30.56F WCI -25
ELY            CLOUDY    -2  -6  84 W5        30.57F WCI -12
HIBBING        CLOUDY    -5  -8  87 NW10      30.60S WCI -23
EVELETH        LGT SNOW  -4  -9  77 W3        30.59F
DULUTH HARBOR  CLOUDY     3  -2  78 W6        30.65F WCI  -8
TWO HARBORS    FAIR       0  -6  78 NW5       30.56S WCI -10
SILVER BAY     FAIR      -6  -9  84 CALM      30.56S
GRAND MARAIS     N/A      7  -2  66 NW12      30.57S WCI  -8
G MARAIS ARPRT CLOUDY    -2  -9  71 NW5       30.48F WCI -12
$$
MNZ029>031-032-039>041-046>048-054>057-064-161500-
   West Central Minnesota

CITY           SKY/WX    TMP DP  RH WIND       PRES   REMARKS
FERGUS FALLS   FAIR     -15 -20  76 NW7       30.78S WCI -31
WHEATON        CLOUDY   -13 -18  77 NW8       30.78F WCI -30
MORRIS         CLOUDY   -11 -17  77 NW12      30.72S WCI -31
ALEXANDRIA     FAIR     -13 -18  78 NW7       30.67F WCI -29
ELBOW LAKE     FAIR     -14 -18  81 NW6       30.72F WCI -28
WADENA         FAIR     -17 -22  76 W5        30.66F WCI -29
GLENWOOD       FAIR     -11 -17  77 NW10      30.68S WCI -30
APPLETON       CLOUDY    -9 -17  70 NW8       30.77R WCI -26
BENSON         CLOUDY   -11 -17  77 N10       30.74S WCI -30
ORTONVILLE     CLOUDY   -11 -18  70 NW7       30.75F WCI -26
MADISON        CLOUDY    -8 -15  71 NW10      30.76F WCI -26
WILLMAR        MOCLDY    -9 -15  77 NW9       30.72S WCI -27
$$
MNZ033>034-036-042>043-049>051-058-059-161500-
   Central Minnesota

CITY           SKY/WX    TMP DP  RH WIND       PRES   REMARKS
ST CLOUD       FAIR      -7 -10  87 NW7       30.68R WCI -21
SAUK CENTRE      N/A    -11 -16  80 NW8       30.68S WCI -28
PAYNESVILLE    FAIR     -10 -14  83 NW8       30.69S WCI -27
AITKIN         FAIR      -9 -13  84 NW3       30.63S
PINE RIVER     FAIR      -9 -15  77 CALM      30.67S
BRAINERD       FAIR      -8 -12  83 NW8       30.65S WCI -24
STAPLES        FAIR     -15 -20  76 NW8       30.66F WCI -32
LONG PRAIRIE   FAIR     -13 -17  84 W6        30.66F WCI -27
LITTLE FALLS   FAIR      -8 -15  71 W3        30.68S
LITCHFIELD     FAIR      -8 -11  84 NW6       30.69S WCI -21
BUFFALO        CLOUDY    -3  -8  79 NW6       30.70S WCI -15
MAPLE LAKE     CLOUDY    -3  -7  85 MISG      30.69S
HUTCHINSON     MOCLDY    -7 -12  81 W8        30.71R WCI -23
$$
MNZ037-044-045-052-053-161500-
   East Central Minnesota

CITY           SKY/WX    TMP DP  RH WIND       PRES   REMARKS
PRINCETON      LGT SNOW  -9 -15  77 CALM      30.67S
MORA           FAIR      -6  -9  84 NW5       30.67S WCI -17
CAMBRIDGE      FLURRIES  -8 -15  71 CALM      30.67S
RUSH CITY      CLOUDY    -3  -7  85 NW3       30.66S
MOOSE LAKE     FAIR      -4  -8  84 CALM      30.61F
HINCKLEY       PTSUNNY   -2  -6  84 NW3       30.65S
CLOQUET        FAIR      -2  -8  78 NW9       30.58F WCI -18
MCGREGOR       CLOUDY    -2  -6  84 NW6       30.63S WCI -14
$$
MNZ071>073-080-081-089-090-097-098-161500-
   Southwest Minnesota

CITY           SKY/WX    TMP DP  RH WIND       PRES   REMARKS
MONTEVIDEO     CLOUDY    -9 -15  77 N14       30.75S WCI -31
GRANITE FALLS  CLOUDY    -6 -11  79 NW12      30.76S WCI -24
CANBY          CLOUDY    -8 -12  80 W9        30.76S WCI -25
MARSHALL       CLOUDY    -8 -12  83 NW14      30.73F WCI -29
REDWOOD FALLS  CLOUDY    -9 -13  83 NW12      30.74S WCI -28
OLIVIA         CLOUDY    -8 -13  77 NW10G16   30.72S WCI -26
PIPESTONE      CLOUDY    -8 -11  84 N8        30.66R WCI -23
WINDOM         CLOUDY    -9 -20  59 NW16      30.67S WCI -32
WORTHINGTON    CLOUDY   -10 -14  82 NW9       30.67S WCI -27
JACKSON        CLOUDY    -8 -15  71 NW9       30.67R WCI -25
SLAYTON        CLOUDY    -9 -13  82 NW13      30.66F WCI -29
$$
MNZ065>067-074>077-082>085-091>093-161500-
   South Central Minnesota

CITY           SKY/WX    TMP DP  RH WIND       PRES   REMARKS
MANKATO        CLOUDY    -6 -11  79 NW15      30.69S WCI -27
NEW ULM        FLURRIES  -8 -13  77 NW12      30.71S WCI -27
ST JAMES       FLURRIES  -8 -11  84 NW15G21   30.72R WCI -29
FAIRMONT       CLOUDY    -6 -11  79 NW16      30.69R HAZE    WCI -28
FARIBAULT      CLOUDY     0  -4  85 NW7       30.65S WCI -13
OWATONNA       CLOUDY    -2  -8  78 NW14      30.64S WCI -21
WASECA         CLOUDY    -2  -8  78 NW12      30.67S WCI -20
ALBERT LEA     CLOUDY    -4  -9  77 NW9       30.63R HAZE    WCI -20
$$
MNZ078>079-086>088-094>096-161500-
   Southeast Minnesota

CITY           SKY/WX    TMP DP  RH WIND       PRES   REMARKS
ROCHESTER      CLOUDY     1  -1  91 NW17      30.58R WCI -19
RED WING       LGT SNOW   3  -2  78 NW7       30.65R WCI  -9
STANTON        CLOUDY     3  -1  82 NW8       30.65R WCI -10
DODGE CENTER   LGT SNOW   0  -4  85 NW15      30.59R WCI -20
WINONA         FAIR       3   0  85 NW6         N/A  WCI  -8
AUSTIN         CLOUDY    -2  -8  78 NW13      30.61R FOG     WCI -21
PRESTON        LGT SNOW   0  -4  85 NW13      30.57R WCI -18
$$
ABBREVIATIONS USED IN REMARKS
   TC - TEMPERATURES IN CELSIUS
  WCI - WIND CHILL INDEX
   HX - HEAT INDEX
  VSB - VISIBILITY
$$




USA.gov is the U.S. government's official web portal to all federal, state and local government web resources and services.